Tracking 19145 objects as of 25-Apr-2018
HD Live streaming from Space Station
objects crossing your sky now

FENGYUN 1C DEB

Track FENGYUN 1C DEB now!
10-day predictions


NORAD ID: 35207
Int'l Code: 1999-025DPP
Perigee: 740.6 km
Apogee: 853.2 km
Inclination: 98.9 °
Period: 100.7 minutes
Semi major axis: 7167 km
RCS: 0.0073 m2 (small)
Launch date: May 10, 1999
Source: People's Republic of China (PRC)
Launch site: Taiyaun Space Center, China (TSC)

Note: This is SATELLITE DEBRIS
aabbcc
Your satellite tracking list
Your tracking list is empty




NASA's NSSDC Master Catalog

Two Line Element Set (TLE):
1 35207U 99025DPP 18114.24143097  .00000752  00000-0  29566-3 0  9992
2 35207  98.8799 120.9588 0078546 212.3715 147.2635 14.30592085516426
Source of the keplerian elements: AFSPC